This is the latest recevied weather packets stored in our database for station/object DG9MHV-10. If no packets are shown the sender has not sent any weather packets the latest 10 day(s).
| Time | Temp. | Humidity | Pressure | Rain* | Wind** | Luminosity | Snow |
|---|---|---|---|---|---|---|---|
| 1778269263 | 12.22° C | 100% | 1014.4 hPa | - | - | - | - |
| 1778268362 | 12.22° C | 100% | 1014.1 hPa | - | - | - | - |
| 1778267462 | 12.78° C | 100% | 1013.9 hPa | - | - | - | - |
| 1778266562 | 13.33° C | 100% | 1013.6 hPa | - | - | - | - |
| 1778265662 | 13.89° C | 100% | 1013.4 hPa | - | - | - | - |
| 1778264762 | 14.44° C | 100% | 1013.8 hPa | - | - | - | - |
| 1778263862 | 15° C | 100% | 1014.5 hPa | - | - | - | - |
| 1778262962 | 15.56° C | 100% | 1014.7 hPa | - | - | - | - |
| 1778262062 | 16.11° C | 100% | 1014.8 hPa | - | - | - | - |
| 1778261162 | 16.67° C | 100% | 1015.1 hPa | - | - | - | - |
| 1778260261 | 16.67° C | 100% | 1015.1 hPa | - | - | - | - |
| 1778259360 | 17.22° C | 100% | 1015.1 hPa | - | - | - | - |
| 1778258460 | 17.22° C | 100% | 1015 hPa | - | - | - | - |
| 1778257560 | 17.22° C | 100% | 1015 hPa | - | - | - | - |
| 1778255770 | 18.33° C | 100% | 1015.2 hPa | - | - | - | - |
| 1778254870 | 19.44° C | 100% | 1015.3 hPa | - | - | - | - |
| 1778253970 | 19.44° C | 100% | 1015.3 hPa | - | - | - | - |
| 1778253070 | 19.44° C | 100% | 1015.4 hPa | - | - | - | - |
| 1778252170 | 20° C | 100% | 1015.5 hPa | - | - | - | - |
| 1778251270 | 20° C | 100% | 1015.6 hPa | - | - | - | - |
| 1778250370 | 19.44° C | 100% | 1015.7 hPa | - | - | - | - |
| 1778249470 | 20° C | 100% | 1015.8 hPa | - | - | - | - |
| 1778248570 | 21.11° C | 100% | 1016 hPa | - | - | - | - |
| 1778247670 | 20° C | 100% | 1016 hPa | - | - | - | - |
| 1778246770 | 18.89° C | 100% | 1016.1 hPa | - | - | - | - |
* Rain since midnight (hover to see other rain measurements)
** Current wind speed in m/s (hover to see current wind gust speed)